| time (UTC) | temp C | wind direction | speed KPH | gust KPH | rain 1hr cm | rain 24hr cm | rain mn cm | humidity % | barometer mb |
| 20260504001925 | 22 | 329 | 6.4 | 17.7 | 0.00 | 0.00 | 0.00 | 44 | 1010.2 |
| 20260504001425 | 22 | 349 | 9.7 | 17.7 | 0.00 | 0.00 | 0.00 | 46 | 1010.3 |
| 20260504000925 | 22 | 337 | 4.8 | 25.7 | 0.00 | 0.00 | 0.00 | 46 | 1010.3 |
| 20260503233425 | 22 | 335 | 8.0 | 19.3 | 0.00 | 0.00 | 0.00 | 47 | 1010.6 |
| 20260503232925 | 22 | 339 | 4.8 | 19.3 | 0.00 | 0.00 | 0.00 | 48 | 1010.9 |
| 20260503231926 | 22 | 333 | 9.7 | 20.9 | 0.00 | 0.00 | 0.00 | 47 | 1010.9 |
| 20260503230425 | 22 | 335 | 6.4 | 20.9 | 0.00 | 0.00 | 0.00 | 47 | 1010.9 |
| 20260503225925 | 22 | 340 | 9.7 | 17.7 | 0.00 | 0.00 | 0.00 | 47 | 1011.3 |
| 20260503225425 | 22 | 328 | 9.7 | 20.9 | 0.00 | 0.00 | 0.00 | 46 | 1011.3 |
| 20260503221425 | 22 | 328 | 8.0 | 24.1 | 0.00 | 0.00 | 0.00 | 44 | 1011.8 |
| 20260503204925 | 21 | 316 | 6.4 | 19.3 | 0.00 | 0.00 | 0.00 | 48 | 1012.4 |
| 20260503203424 | 21 | 318 | 8.0 | 17.7 | 0.00 | 0.00 | 0.00 | 49 | 1012.6 |
| 20260503202925 | 21 | 328 | 8.0 | 19.3 | 0.00 | 0.00 | 0.00 | 50 | 1012.8 |
| 20260503201925 | 21 | 329 | 11.3 | 20.9 | 0.00 | 0.00 | 0.00 | 49 | 1012.8 |
| 20260503200925 | 21 | 321 | 8.0 | 17.7 | 0.00 | 0.00 | 0.00 | 49 | 1012.9 |
| 20260503195925 | 21 | 313 | 6.4 | 19.3 | 0.00 | 0.00 | 0.00 | 51 | 1013.1 |
| 20260503195424 | 21 | 322 | 4.8 | 16.1 | 0.00 | 0.00 | 0.00 | 52 | 1013.1 |
| 20260503193924 | 21 | 356 | 8.0 | 20.9 | 0.00 | 0.00 | 0.00 | 53 | 1013.2 |
| 20260503191424 | 21 | 21 | 4.8 | 19.3 | 0.00 | 0.00 | 0.00 | 54 | 1013.5 |
| 20260503190425 | 20 | 330 | 8.0 | 17.7 | 0.00 | 0.00 | 0.00 | 58 | 1013.5 |
| 20260503184925 | 19 | 338 | 6.4 | 16.1 | 0.00 | 0.00 | 0.00 | 62 | 1013.7 |
| 20260503183925 | 18 | 352 | 8.0 | 19.3 | 0.00 | 0.00 | 0.00 | 63 | 1013.9 |
| 20260503182925 | 18 | 345 | 9.7 | 24.1 | 0.00 | 0.00 | 0.00 | 63 | 1013.9 |
| 20260503182424 | 18 | 335 | 6.4 | 22.5 | 0.00 | 0.00 | 0.00 | 64 | 1013.9 |
| 20260503173925 | 17 | 345 | 6.4 | 16.1 | 0.00 | 0.00 | 0.00 | 66 | 1014.1 |
| 20260503172924 | 17 | 327 | 6.4 | 22.5 | 0.00 | 0.00 | 0.00 | 67 | 1014.0 |
| 20260503171424 | 17 | 338 | 8.0 | 19.3 | 0.00 | 0.00 | 0.00 | 68 | 1014.2 |
| 20260503170924 | 16 | 344 | 4.8 | 24.1 | 0.00 | 0.00 | 0.00 | 69 | 1014.2 |
| 20260503150925 | 15 | 334 | 4.8 | 16.1 | 0.00 | 0.00 | 0.00 | 71 | 1014.5 |
| 20260503130925 | 14 | 17 | 1.6 | 8.0 | 0.00 | 0.00 | 0.00 | 70 | 1013.9 |
| 20260503080924 | 16 | 0 | 0.0 | 3.2 | 0.00 | 0.00 | 0.00 | 59 | 1014.4 |
| 20260503072924 | 16 | 0 | 0.0 | 3.2 | 0.00 | 0.00 | 0.00 | 56 | 1014.3 |
| 20260503071924 | 16 | 0 | 0.0 | 1.6 | 0.00 | 0.00 | 0.00 | 56 | 1014.3 |
| 20260503070924 | 16 | 0 | 0.0 | 1.6 | 0.00 | 0.00 | 0.00 | 56 | 1014.4 |
| 20260503070424 | 16 | 0 | 0.0 | 1.6 | 0.00 | 0.00 | 0.00 | 56 | 1014.4 |
| 20260503054424 | 17 | 84 | 3.2 | 4.8 | 0.00 | 0.00 | 0.00 | 55 | 1014.2 |
| 20260503053540 | 17 | 66 | 1.6 | 4.8 | 0.00 | 0.00 | 0.00 | 55 | 1014.2 |
| 20260503053424 | 17 | 66 | 1.6 | 4.8 | 0.00 | 0.00 | 0.00 | 55 | 1014.2 |
| 20260503052924 | 17 | 0 | 0.0 | 3.2 | 0.00 | 0.00 | 0.00 | 55 | 1014.2 |
| 20260503051959 | 17 | 62 | 1.6 | 4.8 | 0.00 | 0.00 | 0.00 | 55 | 1014.2 |
| 20260503051924 | 17 | 62 | 1.6 | 4.8 | 0.00 | 0.00 | 0.00 | 55 | 1014.2 |
| 20260503044924 | 17 | 0 | 0.0 | 3.2 | 0.00 | 0.00 | 0.00 | 55 | 1014.1 |
| 20260503041925 | 17 | 74 | 1.6 | 4.8 | 0.00 | 0.00 | 0.00 | 56 | 1014.0 |
| 20260503040550 | 17 | 45 | 4.8 | 9.7 | 0.00 | 0.00 | 0.00 | 56 | 1013.7 |
| 20260503040424 | 17 | 45 | 4.8 | 9.7 | 0.00 | 0.00 | 0.00 | 56 | 1013.7 |
| 20260503035925 | 17 | 0 | 0.0 | 4.8 | 0.00 | 0.00 | 0.00 | 57 | 1013.6 |
| 20260503034924 | 17 | 9 | 3.2 | 11.3 | 0.00 | 0.00 | 0.00 | 58 | 1013.6 |
| 20260503033924 | 17 | 33 | 4.8 | 11.3 | 0.00 | 0.00 | 0.00 | 60 | 1013.4 |
| 20260503032924 | 17 | 359 | 3.2 | 8.0 | 0.00 | 0.00 | 0.00 | 61 | 1013.2 |
| 20260503025924 | 17 | 355 | 4.8 | 16.1 | 0.00 | 0.00 | 0.00 | 61 | 1013.1 |
| 20260503025424 | 17 | 351 | 6.4 | 17.7 | 0.00 | 0.00 | 0.00 | 61 | 1013.1 |
| 20260503024924 | 17 | 346 | 3.2 | 17.7 | 0.00 | 0.00 | 0.00 | 61 | 1013.1 |
| 20260503022924 | 17 | 335 | 8.0 | 17.7 | 0.00 | 0.00 | 0.00 | 61 | 1013.1 |
| 20260503021424 | 18 | 339 | 8.0 | 14.5 | 0.00 | 0.00 | 0.00 | 60 | 1013.1 |
| 20260503015924 | 18 | 318 | 6.4 | 16.1 | 0.00 | 0.00 | 0.00 | 60 | 1013.2 |
| 20260503013924 | 18 | 324 | 6.4 | 14.5 | 0.00 | 0.00 | 0.00 | 58 | 1013.3 |
| 20260503012924 | 19 | 356 | 9.7 | 20.9 | 0.00 | 0.00 | 0.00 | 56 | 1013.3 |
| 20260503011924 | 18 | 14 | 9.7 | 20.9 | 0.00 | 0.00 | 0.00 | 55 | 1013.3 |
| 20260503010924 | 18 | 313 | 3.2 | 19.3 | 0.00 | 0.00 | 0.00 | 55 | 1013.3 |
| 20260503002924 | 19 | 338 | 8.0 | 22.5 | 0.00 | 0.00 | 0.00 | 54 | 1013.6 |